Weather History for Morris, IL

Change the Weather History Date:

Friday, April 26, 2013

  Actual Average (KLOT) Record (KLOT)
Temperature  
Mean Temperature 52 °F 54 °F  
Max Temperature 68 °F 65 °F 89 °F (1994)
Min Temperature 37 °F 43 °F 33 °F (2012)
Degree Days  
Heating Degree Days 13 11  
Month to date heating degree days 408  
Since 1 July heating degree days 5953  
Cooling Degree Days 0 0  
Month to date cooling degree days 0  
Year to date cooling degree days 0  
Growing Degree Days 2 (Base 50)    
Moisture  
Dew Point 39 °F    
Average Humidity 62    
Maximum Humidity 82    
Minimum Humidity 44    
Precipitation  
Precipitation 0.00 in 0.14 in 0.76 in (1995)
Month to date precipitation 3.30  
Year to date precipitation 9.78  
Snow  
Snow 0.00 in 0.00 in 0.00 in (2011)
Month to date snowfall 0.5  
Since 1 July snowfall 32.3  
Snow Depth -    
Sea Level Pressure  
Sea Level Pressure 30.30 in    
Wind  
Wind Speed 9 mph (South)    
Max Wind Speed 23 mph    
Max Gust Speed 28 mph    
Visibility 10 miles    
Events      
T = Trace of Precipitation, MM = Missing Value Source: NWS Daily Summary

Daily Weather History Graph

Daily Weather History Graph

Search for Another Location

Airport:

Trip Planner

Search our weather history database for the weather conditions in past years. The results will help you decide how hot, cold, wet, or windy it might be!

Date:

Astronomy

Apr. 26, 2013 Rise Set
Actual Time 5:57 AM CDT 7:46 PM CDT
Civil Twilight 5:27 AM CDT 8:15 PM CDT
Nautical Twilight 4:51 AM CDT 8:52 PM CDT
Astronomical Twilight 4:12 AM CDT 9:31 PM CDT
Moon 9:09 PM CDT (4/26) 6:23 AM CDT (4/26)
Length of Visible Light 14h 48m
Length of Day
13h 48m
Full, 99% of the Moon is Illuminated
Apr 26
Full
May 2
Last Quarter
May 9
New
May 17
First Quarter
May 24
Full

Hourly Weather History & Observations

Time (CDT) Temp. Windchill Dew Point Humidity Pressure Visibility Wind Dir Wind Speed Gust Speed Precip Events Conditions
12:15 AM 41.4 °F 39.4 °F 31.3 °F 67% 30.32 in 10.0 mi SSE 3.5 mph - N/A   Clear
12:35 AM 41.0 °F - 31.8 °F 70% 30.32 in 10.0 mi Calm Calm - N/A   Clear
12:55 AM 41.4 °F 39.4 °F 32.0 °F 69% 30.33 in 10.0 mi SSE 3.5 mph - N/A   Clear
1:15 AM 40.1 °F - 32.2 °F 73% 30.33 in 10.0 mi Calm Calm - N/A   Clear
1:35 AM 40.3 °F 37.1 °F 32.2 °F 73% 30.33 in 10.0 mi SSE 4.6 mph - N/A   Clear
1:55 AM 40.8 °F 37.8 °F 32.0 °F 71% 30.32 in 10.0 mi SSE 4.6 mph - N/A   Clear
2:15 AM 40.1 °F 36.9 °F 31.6 °F 72% 30.32 in 10.0 mi SSE 4.6 mph - N/A   Clear
2:35 AM 39.0 °F 34.8 °F 31.1 °F 73% 30.32 in 10.0 mi SSE 5.8 mph - N/A   Clear
2:55 AM 38.3 °F 33.2 °F 29.8 °F 72% 30.32 in 10.0 mi SSE 6.9 mph - N/A   Clear
3:15 AM 37.4 °F 32.8 °F 30.2 °F 75% 30.32 in 10.0 mi SSE 5.8 mph - N/A   Clear
3:35 AM 37.4 °F 32.1 °F 31.1 °F 78% 30.31 in 10.0 mi SE 6.9 mph - N/A   Clear
3:55 AM 37.9 °F 32.1 °F 31.6 °F 78% 30.31 in 10.0 mi SE 8.1 mph - N/A   Clear
4:15 AM 38.5 °F 32.7 °F 32.0 °F 78% 30.31 in 10.0 mi SSE 8.1 mph - N/A   Clear
4:35 AM 38.7 °F 32.9 °F 32.0 °F 77% 30.31 in 10.0 mi SSE 8.1 mph - N/A   Clear
4:55 AM 37.9 °F 32.7 °F 32.0 °F 79% 30.31 in 10.0 mi SSE 6.9 mph - N/A   Clear
5:15 AM 37.9 °F 32.7 °F 32.0 °F 79% 30.31 in 10.0 mi SSE 6.9 mph - N/A   Clear
5:35 AM 37.8 °F 32.5 °F 32.0 °F 80% 30.31 in 10.0 mi SSE 6.9 mph - N/A   Clear
5:55 AM 38.1 °F 32.9 °F 32.0 °F 79% 30.32 in 10.0 mi SSE 6.9 mph - N/A   Clear
6:15 AM 38.5 °F 36.1 °F 32.4 °F 79% 30.32 in 10.0 mi South 3.5 mph - N/A   Clear
6:35 AM 39.4 °F 34.5 °F 33.3 °F 79% 30.32 in 10.0 mi SE 6.9 mph - N/A   Clear
6:55 AM 41.7 °F 35.6 °F 34.3 °F 75% 30.33 in 10.0 mi SSE 10.4 mph - N/A   Clear
7:15 AM 43.2 °F 38.4 °F 35.1 °F 73% 30.33 in 10.0 mi South 8.1 mph - N/A   Clear
7:35 AM 44.8 °F 39.4 °F 35.2 °F 69% 30.33 in 10.0 mi SSE 10.4 mph - N/A   Clear
7:55 AM 46.4 °F 40.7 °F 35.8 °F 67% 30.33 in 10.0 mi SSE 12.7 mph - N/A   Clear
8:15 AM 48.4 °F - 35.4 °F 61% 30.33 in 10.0 mi SSE 13.8 mph - N/A   Clear
8:35 AM 49.3 °F - 36.0 °F 60% 30.32 in 10.0 mi SSE 13.8 mph 19.6 mph N/A   Clear
8:55 AM 51.4 °F - 36.3 °F 56% 30.33 in 10.0 mi South 16.1 mph - N/A   Clear
9:15 AM 52.7 °F - 37.6 °F 56% 30.32 in 10.0 mi South 17.3 mph - N/A   Clear
9:35 AM 54.3 °F - 39.2 °F 57% 30.33 in 10.0 mi South 13.8 mph - N/A   Clear
9:55 AM 57.0 °F - 39.2 °F 51% 30.32 in 10.0 mi South 16.1 mph - N/A   Clear
10:15 AM 58.3 °F - 39.4 °F 49% 30.32 in 10.0 mi South 18.4 mph - N/A   Clear
10:35 AM 59.4 °F - 39.6 °F 48% 30.33 in 10.0 mi South 20.7 mph - N/A   Clear
10:55 AM 60.3 °F - 40.6 °F 48% 30.33 in 10.0 mi South 19.6 mph 23.0 mph N/A   Clear
11:15 AM 61.2 °F - 39.9 °F 46% 30.33 in 10.0 mi South 21.9 mph 27.6 mph N/A   Clear
11:35 AM 61.7 °F - 39.7 °F 44% 30.33 in 10.0 mi South 19.6 mph 25.3 mph N/A   Clear
11:55 AM 62.6 °F - 40.3 °F 44% 30.32 in 10.0 mi South 20.7 mph 27.6 mph N/A   Clear
12:15 PM 63.3 °F - 41.5 °F 45% 30.31 in 10.0 mi SSW 23.0 mph 26.5 mph N/A   Clear
12:35 PM 63.5 °F - 42.3 °F 46% 30.31 in 10.0 mi South 20.7 mph 27.6 mph N/A   Clear
12:55 PM 63.1 °F - 42.4 °F 47% 30.31 in 10.0 mi SSW 19.6 mph 25.3 mph N/A   Clear
1:15 PM 63.5 °F - 43.7 °F 48% 30.30 in 10.0 mi SW 19.6 mph 24.2 mph N/A   Clear
1:35 PM 63.7 °F - 44.1 °F 49% 30.29 in 10.0 mi SSW 15.0 mph 24.2 mph N/A   Clear
1:55 PM 64.4 °F - 43.9 °F 47% 30.29 in 10.0 mi SSW 19.6 mph 25.3 mph N/A   Clear
2:15 PM 66.0 °F - 44.2 °F 45% 30.28 in 10.0 mi SSW 19.6 mph 25.3 mph N/A   Clear
2:35 PM 67.6 °F - 45.5 °F 45% 30.27 in 10.0 mi SW 17.3 mph 20.7 mph N/A   Clear
2:55 PM 67.3 °F - 45.0 °F 45% 30.26 in 10.0 mi SSW 17.3 mph 24.2 mph N/A   Clear
3:15 PM 67.5 °F - 45.1 °F 45% 30.27 in 10.0 mi SSW 15.0 mph 24.2 mph N/A   Scattered Clouds
3:35 PM 67.3 °F - 45.5 °F 45% 30.26 in 10.0 mi SSW 17.3 mph 25.3 mph N/A   Scattered Clouds
3:55 PM 66.9 °F - 45.3 °F 46% 30.26 in 10.0 mi SW 16.1 mph - N/A   Scattered Clouds
4:15 PM 67.5 °F - 45.1 °F 45% 30.26 in 10.0 mi SSW 15.0 mph 21.9 mph N/A   Scattered Clouds
4:35 PM 66.6 °F - 45.5 °F 47% 30.25 in 10.0 mi SSW 15.0 mph - N/A   Scattered Clouds
4:55 PM 65.5 °F - 45.3 °F 48% 30.25 in 10.0 mi SSW 16.1 mph - N/A   Scattered Clouds
5:15 PM 66.2 °F - 44.8 °F 46% 30.25 in 10.0 mi SW 13.8 mph 24.2 mph N/A   Scattered Clouds
5:35 PM 64.8 °F - 44.2 °F 47% 30.25 in 10.0 mi SW 16.1 mph - N/A   Scattered Clouds
5:55 PM 64.4 °F - 44.4 °F 48% 30.25 in 10.0 mi SSW 15.0 mph - N/A   Scattered Clouds
6:15 PM 63.7 °F - 44.4 °F 50% 30.26 in 10.0 mi SSW 13.8 mph - N/A   Scattered Clouds
6:35 PM 63.7 °F - 44.6 °F 50% 30.26 in 10.0 mi SSW 17.3 mph - N/A   Scattered Clouds
6:55 PM 62.2 °F - 44.6 °F 52% 30.26 in 10.0 mi SSW 19.6 mph - N/A   Scattered Clouds
7:15 PM 60.8 °F - 44.8 °F 56% 30.27 in 10.0 mi SSW 16.1 mph 21.9 mph N/A   Clear
7:35 PM 59.4 °F - 44.8 °F 58% 30.27 in 10.0 mi SSW 11.5 mph - N/A   Clear
7:55 PM 57.6 °F - 44.6 °F 62% 30.28 in 10.0 mi SSW 8.1 mph - N/A   Clear
8:15 PM 55.4 °F - 44.6 °F 67% 30.29 in 10.0 mi SSW 6.9 mph - N/A   Clear
8:35 PM 54.1 °F - 43.9 °F 68% 30.28 in 10.0 mi South 6.9 mph - N/A   Clear
8:55 PM 54.5 °F - 44.6 °F 69% 30.28 in 10.0 mi South 9.2 mph - N/A   Clear
9:15 PM 54.7 °F - 44.6 °F 69% 30.29 in 10.0 mi SSW 9.2 mph - N/A   Clear
9:35 PM 53.6 °F - 44.6 °F 72% 30.29 in 10.0 mi SSW 6.9 mph - N/A   Clear
9:55 PM 51.8 °F - 44.2 °F 75% 30.29 in 10.0 mi SSW 6.9 mph - N/A   Clear
10:15 PM 51.4 °F - 44.1 °F 76% 30.29 in 10.0 mi SW 6.9 mph - N/A   Clear
10:35 PM 51.8 °F - 44.2 °F 75% 30.30 in 10.0 mi SW 5.8 mph - N/A   Clear
10:55 PM 51.6 °F - 44.4 °F 76% 30.30 in 10.0 mi SW 5.8 mph - N/A   Clear
11:15 PM 50.0 °F - 43.7 °F 79% 30.30 in 10.0 mi SW 6.9 mph - N/A   Clear
11:35 PM 48.7 °F - 43.3 °F 82% 30.30 in 10.0 mi SSW 6.9 mph - N/A   Clear
11:55 PM 48.9 °F - 43.7 °F 82% 30.30 in 10.0 mi SW 6.9 mph - N/A   Clear